AVR4849 SKBO-SKIB

Flight info

Callsign AVR4849
Flight time 0h 31m
Altitude 16000
Route SILEG5E SILEG SILEG3G
Aircraft A320/M-SDE3FGHIRWY/LB1

Departure

Time 2026-05-06 21:06
Airport El Dorado International Airport (SKBO)

Arrival

Time 2026-05-06 21:37
Airport Perales Airport (SKIB)
Time Latitude Longitude Altitude Speed Heading
2026-05-06 20:38 4.69785 -74.14534 8373 ft 0 kts 37°
2026-05-06 20:55 4.69767 -74.14548 8371 ft 2 kts 37°
2026-05-06 20:55 4.69753 -74.14564 8373 ft 4 kts 87°
2026-05-06 20:55 4.69758 -74.14589 8373 ft 4 kts 121°
2026-05-06 20:56 4.69773 -74.14610 8373 ft 4 kts 127°
2026-05-06 20:56 4.69789 -74.14631 8373 ft 4 kts 127°
2026-05-06 20:56 4.69805 -74.14653 8373 ft 4 kts 127°
2026-05-06 20:56 4.69822 -74.14675 8373 ft 4 kts 127°
2026-05-06 20:57 4.69838 -74.14696 8373 ft 4 kts 127°
2026-05-06 20:57 4.69853 -74.14716 8370 ft 4 kts 114°
2026-05-06 20:57 4.69854 -74.14738 8373 ft 4 kts 53°
2026-05-06 20:57 4.69835 -74.14757 8373 ft 4 kts 37°
2026-05-06 20:58 4.69815 -74.14772 8371 ft 4 kts 37°
2026-05-06 20:58 4.69809 -74.14777 8373 ft 0 kts 37°
2026-05-06 21:00 4.69814 -74.14773 8373 ft 3 kts 37°
2026-05-06 21:00 4.69854 -74.14752 8373 ft 9 kts 359°
2026-05-06 21:00 4.69919 -74.14805 8371 ft 16 kts 308°
2026-05-06 21:01 4.69923 -74.14893 8373 ft 13 kts 226°
2026-05-06 21:01 4.69864 -74.14958 8373 ft 13 kts 258°
2026-05-06 21:01 4.69902 -74.15038 8373 ft 14 kts 308°
2026-05-06 21:01 4.69961 -74.15114 8373 ft 13 kts 307°
2026-05-06 21:02 4.70011 -74.15182 8372 ft 11 kts 307°
2026-05-06 21:02 4.70054 -74.15239 8373 ft 10 kts 307°
2026-05-06 21:02 4.70105 -74.15306 8373 ft 14 kts 308°
2026-05-06 21:02 4.70176 -74.15395 8373 ft 20 kts 307°
2026-05-06 21:03 4.70272 -74.15522 8373 ft 26 kts 307°
2026-05-06 21:03 4.70383 -74.15675 8373 ft 28 kts 306°
2026-05-06 21:03 4.70498 -74.15823 8372 ft 22 kts 307°
2026-05-06 21:03 4.70495 -74.15913 8373 ft 13 kts 219°
2026-05-06 21:04 4.70420 -74.15971 8371 ft 14 kts 217°
2026-05-06 21:04 4.70357 -74.15997 8374 ft 7 kts 123°
2026-05-06 21:04 4.70348 -74.15985 8373 ft 0 kts 127°
2026-05-06 21:05 4.70342 -74.15976 8374 ft 6 kts 127°
2026-05-06 21:05 4.70220 -74.15813 8372 ft 63 kts 127°
2026-05-06 21:05 4.69825 -74.15290 8374 ft 123 kts 127°
2026-05-06 21:05 4.69211 -74.14477 8524 ft 157 kts 128°
2026-05-06 21:06 4.68516 -74.13651 9382 ft 155 kts 143°
2026-05-06 21:06 4.67496 -74.13337 9787 ft 158 kts 183°
2026-05-06 21:06 4.66472 -74.13754 10173 ft 165 kts 223°
2026-05-06 21:06 4.65760 -74.14671 10510 ft 169 kts 233°
2026-05-06 21:07 4.65083 -74.15647 10845 ft 171 kts 232°
2026-05-06 21:07 4.64405 -74.16637 11198 ft 173 kts 231°
2026-05-06 21:07 4.63714 -74.17644 11505 ft 181 kts 231°
2026-05-06 21:07 4.62956 -74.18739 11637 ft 201 kts 233°
2026-05-06 21:08 4.62120 -74.19942 11756 ft 220 kts 232°
2026-05-06 21:08 4.61428 -74.21390 11855 ft 244 kts 256°
2026-05-06 21:08 4.61090 -74.23135 11949 ft 267 kts 258°
2026-05-06 21:08 4.60728 -74.25048 12132 ft 291 kts 258°
2026-05-06 21:09 4.60332 -74.27126 12364 ft 315 kts 258°
2026-05-06 21:09 4.59862 -74.29348 12573 ft 338 kts 256°
2026-05-06 21:09 4.59301 -74.31683 12758 ft 359 kts 255°
2026-05-06 21:09 4.58678 -74.34143 13172 ft 368 kts 254°
2026-05-06 21:10 4.58034 -74.36647 13773 ft 374 kts 254°
2026-05-06 21:10 4.57381 -74.39195 14274 ft 380 kts 255°
2026-05-06 21:10 4.56729 -74.41770 14956 ft 376 kts 255°
2026-05-06 21:10 4.56091 -74.44337 15414 ft 385 kts 255°
2026-05-06 21:11 4.55443 -74.46954 15555 ft 388 kts 256°
2026-05-06 21:11 4.54795 -74.49586 15629 ft 388 kts 256°
2026-05-06 21:11 4.54152 -74.52213 15576 ft 388 kts 256°
2026-05-06 21:11 4.53505 -74.54841 15576 ft 388 kts 256°
2026-05-06 21:12 4.52858 -74.57465 15340 ft 385 kts 255°
2026-05-06 21:12 4.52218 -74.60063 14856 ft 384 kts 255°
2026-05-06 21:12 4.51578 -74.62655 14416 ft 382 kts 255°
2026-05-06 21:12 4.50935 -74.65245 13704 ft 387 kts 255°
2026-05-06 21:13 4.50274 -74.67902 12766 ft 397 kts 255°
2026-05-06 21:13 4.49619 -74.70546 12181 ft 394 kts 255°
2026-05-06 21:13 4.48965 -74.73199 11656 ft 390 kts 255°
2026-05-06 21:13 4.48318 -74.75813 11293 ft 380 kts 255°
2026-05-06 21:14 4.47700 -74.78313 11285 ft 360 kts 255°
2026-05-06 21:14 4.47113 -74.80680 11292 ft 341 kts 255°
2026-05-06 21:14 4.46554 -74.82929 11289 ft 325 kts 255°
2026-05-06 21:14 4.46023 -74.85074 11286 ft 310 kts 255°
2026-05-06 21:15 4.45520 -74.87114 11280 ft 293 kts 255°
2026-05-06 21:15 4.45045 -74.89031 11277 ft 273 kts 255°
2026-05-06 21:15 4.44603 -74.90809 11272 ft 253 kts 255°
2026-05-06 21:15 4.44029 -74.92415 11182 ft 239 kts 238°
2026-05-06 21:16 4.43384 -74.93295 10958 ft 235 kts 224°
2026-05-06 21:16 4.42085 -74.94247 10589 ft 230 kts 203°
2026-05-06 21:16 4.40574 -74.94686 10212 ft 225 kts 187°
2026-05-06 21:16 4.39027 -74.94901 9702 ft 224 kts 188°
2026-05-06 21:17 4.37532 -74.95288 9164 ft 221 kts 205°
2026-05-06 21:17 4.36258 -74.96124 8655 ft 218 kts 221°
2026-05-06 21:17 4.35122 -74.97116 8145 ft 216 kts 221°
2026-05-06 21:17 4.33995 -74.98091 7675 ft 213 kts 221°
2026-05-06 21:18 4.32876 -74.99058 7174 ft 212 kts 221°
2026-05-06 21:18 4.32003 -75.00216 6789 ft 210 kts 249°
2026-05-06 21:18 4.31847 -75.01649 6324 ft 210 kts 279°
2026-05-06 21:18 4.32416 -75.02992 6025 ft 210 kts 298°
2026-05-06 21:19 4.33142 -75.04268 5989 ft 212 kts 298°
2026-05-06 21:19 4.33872 -75.05555 5998 ft 213 kts 298°
2026-05-06 21:19 4.34602 -75.06843 6009 ft 212 kts 297°
2026-05-06 21:19 4.35314 -75.08097 6003 ft 198 kts 296°
2026-05-06 21:20 4.35949 -75.09212 6017 ft 168 kts 295°
2026-05-06 21:20 4.36494 -75.10168 6008 ft 152 kts 295°
2026-05-06 21:20 4.37009 -75.11083 6004 ft 150 kts 294°
2026-05-06 21:20 4.37520 -75.11991 6008 ft 150 kts 294°
2026-05-06 21:21 4.38031 -75.12898 6009 ft 149 kts 294°
2026-05-06 21:21 4.38542 -75.13805 6014 ft 150 kts 294°
2026-05-06 21:21 4.39058 -75.14721 5864 ft 153 kts 295°
2026-05-06 21:21 4.39579 -75.15644 5540 ft 151 kts 295°
2026-05-06 21:22 4.40093 -75.16560 5239 ft 150 kts 295°
2026-05-06 21:22 4.40604 -75.17469 4956 ft 149 kts 295°
2026-05-06 21:22 4.41177 -75.18332 4714 ft 151 kts 313°
2026-05-06 21:22 4.42092 -75.18848 4548 ft 155 kts 345°
2026-05-06 21:23 4.43163 -75.18821 4380 ft 155 kts 17°
2026-05-06 21:23 4.44058 -75.18252 4203 ft 156 kts 51°
2026-05-06 21:23 4.44537 -75.17302 4035 ft 152 kts 82°
2026-05-06 21:23 4.44485 -75.16270 3876 ft 147 kts 111°
2026-05-06 21:24 4.43973 -75.15417 3637 ft 141 kts 134°
2026-05-06 21:24 4.43314 -75.14706 3374 ft 139 kts 132°
2026-05-06 21:24 4.42638 -75.13930 3740 ft 154 kts 132°
2026-05-06 21:24 4.41925 -75.13107 4645 ft 162 kts 134°
2026-05-06 21:25 4.41196 -75.12263 5382 ft 158 kts 135°
2026-05-06 21:25 4.40479 -75.11434 5905 ft 157 kts 135°
2026-05-06 21:25 4.39766 -75.10613 6406 ft 156 kts 136°
2026-05-06 21:25 4.39072 -75.09782 6853 ft 157 kts 126°
2026-05-06 21:26 4.38873 -75.08697 7194 ft 172 kts 76°
2026-05-06 21:26 4.39614 -75.07693 7350 ft 193 kts 38°
2026-05-06 21:26 4.40764 -75.06861 7495 ft 214 kts 33°
2026-05-06 21:26 4.42061 -75.06005 7823 ft 228 kts 32°
2026-05-06 21:27 4.43404 -75.05130 7980 ft 229 kts 33°
2026-05-06 21:27 4.44713 -75.04230 8001 ft 227 kts 43°
2026-05-06 21:27 4.45574 -75.02939 8000 ft 224 kts 73°
2026-05-06 21:27 4.45719 -75.01410 7995 ft 221 kts 101°
2026-05-06 21:28 4.45333 -74.99921 7901 ft 221 kts 107°
2026-05-06 21:28 4.44920 -74.98433 7894 ft 221 kts 107°
2026-05-06 21:28 4.44508 -74.96947 7893 ft 221 kts 108°
2026-05-06 21:28 4.43829 -74.95594 7885 ft 218 kts 134°
2026-05-06 21:29 4.42604 -74.94746 7886 ft 214 kts 162°
2026-05-06 21:29 4.41142 -74.94593 7879 ft 214 kts 188°
2026-05-06 21:29 4.39658 -74.94816 7881 ft 217 kts 189°
2026-05-06 21:29 4.38168 -74.95067 7877 ft 217 kts 196°
2026-05-06 21:30 4.36803 -74.95691 7877 ft 217 kts 215°
2026-05-06 21:30 4.35648 -74.96657 7881 ft 217 kts 221°
2026-05-06 21:30 4.34509 -74.97642 7880 ft 216 kts 221°
2026-05-06 21:30 4.33374 -74.98621 7746 ft 214 kts 221°
2026-05-06 21:31 4.32305 -74.99648 7430 ft 213 kts 236°
2026-05-06 21:31 4.31809 -75.01022 7237 ft 212 kts 266°
2026-05-06 21:31 4.32106 -75.02453 6940 ft 213 kts 296°
2026-05-06 21:31 4.32832 -75.03749 6639 ft 214 kts 298°
2026-05-06 21:32 4.33568 -75.05042 6378 ft 213 kts 298°
2026-05-06 21:32 4.35010 -75.07571 6029 ft 198 kts 296°
2026-05-06 21:32 4.35668 -75.08728 5949 ft 184 kts 295°
2026-05-06 21:33 4.36263 -75.09776 5949 ft 159 kts 295°
2026-05-06 21:33 4.36782 -75.10690 5956 ft 150 kts 294°
2026-05-06 21:33 4.37294 -75.11595 5958 ft 149 kts 294°
2026-05-06 21:33 4.37803 -75.12497 5956 ft 149 kts 295°
2026-05-06 21:34 4.38314 -75.13402 5956 ft 149 kts 294°
2026-05-06 21:34 4.38822 -75.14305 5939 ft 150 kts 294°
2026-05-06 21:34 4.39338 -75.15223 5614 ft 150 kts 295°
2026-05-06 21:34 4.39850 -75.16132 5320 ft 150 kts 295°
2026-05-06 21:35 4.40360 -75.17038 5081 ft 148 kts 295°
2026-05-06 21:35 4.40872 -75.17939 4869 ft 151 kts 297°
2026-05-06 21:35 4.41625 -75.18655 4617 ft 152 kts 329°
2026-05-06 21:35 4.42656 -75.18895 4435 ft 155 kts
2026-05-06 21:36 4.43665 -75.18572 4232 ft 155 kts 34°
2026-05-06 21:36 4.44374 -75.17778 4057 ft 154 kts 68°
2026-05-06 21:36 4.44574 -75.16754 3894 ft 147 kts 98°
2026-05-06 21:36 4.44266 -75.15811 3702 ft 141 kts 126°
2026-05-06 21:37 4.43644 -75.15063 3440 ft 141 kts 134°
2026-05-06 21:37 4.43001 -75.14321 3194 ft 140 kts 134°
2026-05-06 21:37 4.42370 -75.13601 3046 ft 128 kts 131°
2026-05-06 21:37 4.41954 -75.13123 3035 ft 48 kts 131°
2026-05-06 21:38 4.41809 -75.12956 3033 ft 29 kts 131°
2026-05-06 21:38 4.41691 -75.12819 3031 ft 18 kts 131°
2026-05-06 21:38 4.41648 -75.12755 3031 ft 5 kts 213°
2026-05-06 21:38 4.41675 -75.12801 3031 ft 12 kts 311°
2026-05-06 21:39 4.41746 -75.12884 3033 ft 20 kts 310°
2026-05-06 21:39 4.41857 -75.13012 3034 ft 28 kts 311°
2026-05-06 21:39 4.41996 -75.13170 3037 ft 31 kts 311°
2026-05-06 21:39 4.42133 -75.13328 3041 ft 30 kts 311°
2026-05-06 21:40 4.42272 -75.13488 3044 ft 31 kts 311°
2026-05-06 21:40 4.42413 -75.13651 3045 ft 32 kts 311°
2026-05-06 21:40 4.42552 -75.13811 3047 ft 31 kts 311°
2026-05-06 21:40 4.42680 -75.13965 3048 ft 15 kts 291°
2026-05-06 21:41 4.42634 -75.14023 3050 ft 9 kts 223°
2026-05-06 21:41 4.42630 -75.14026 3050 ft 0 kts 223°
2026-05-06 21:41 4.42595 -75.14057 3050 ft 37 kts 221°